N556EL KPWK-KIND

Flight info

Callsign N556EL
Flight time N/A
Altitude 9000
Route VFR
Aircraft PA60/L-SDFGRY/S

Departure

Time 2026-05-08 14:36
Airport Chicago Executive Airport (KPWK)

Arrival

Time N/A
Airport Indianapolis International Airport (KIND)
Time Latitude Longitude Altitude Speed Heading
2026-05-08 14:36 42.12652 -87.90893 1053 ft 126 kts 337°
2026-05-08 14:36 42.13448 -87.91362 1766 ft 132 kts 334°
2026-05-08 14:36 42.14387 -87.91548 2306 ft 142 kts 14°
2026-05-08 14:37 42.15134 -87.90792 2644 ft 136 kts 62°
2026-05-08 14:37 42.15322 -87.89594 2717 ft 123 kts 99°
2026-05-08 14:37 42.14976 -87.88612 2736 ft 114 kts 137°
2026-05-08 14:37 42.14352 -87.87954 2621 ft 116 kts 144°
2026-05-08 14:38 42.13728 -87.87315 2776 ft 113 kts 149°
2026-05-08 14:38 42.12955 -87.86905 2764 ft 128 kts 153°
2026-05-08 14:38 42.12309 -87.86012 2807 ft 135 kts 128°
2026-05-08 14:38 42.11737 -87.84969 2862 ft 142 kts 127°
2026-05-08 14:39 42.11161 -87.83905 2911 ft 148 kts 127°
2026-05-08 14:39 42.10534 -87.82730 2805 ft 159 kts 127°
2026-05-08 14:39 42.09875 -87.81484 2711 ft 166 kts 127°
2026-05-08 14:39 42.09193 -87.80205 2652 ft 169 kts 128°
2026-05-08 14:40 42.08514 -87.78932 2685 ft 166 kts 127°
2026-05-08 14:40 42.07845 -87.77667 2700 ft 166 kts 127°
2026-05-08 14:40 42.07165 -87.76392 2687 ft 168 kts 126°
2026-05-08 14:40 42.06488 -87.75116 2678 ft 167 kts 126°
2026-05-08 14:41 42.05819 -87.73850 2686 ft 166 kts 127°
2026-05-08 14:41 42.05146 -87.72589 2694 ft 165 kts 127°
2026-05-08 14:41 42.04484 -87.71347 2689 ft 165 kts 127°
2026-05-08 14:41 42.03806 -87.70070 2682 ft 165 kts 127°
2026-05-08 14:42 42.03146 -87.68830 2676 ft 166 kts 127°
2026-05-08 14:42 42.02476 -87.67572 2680 ft 166 kts 127°
2026-05-08 14:42 42.01798 -87.66306 2684 ft 167 kts 127°
2026-05-08 14:42 42.01117 -87.65029 2667 ft 167 kts 127°
2026-05-08 14:43 42.00443 -87.63762 2672 ft 166 kts 127°
2026-05-08 14:43 41.99774 -87.62507 2677 ft 164 kts 127°
2026-05-08 14:43 41.99147 -87.61335 2663 ft 155 kts 127°
2026-05-08 14:43 41.98471 -87.60069 2700 ft 177 kts 127°
2026-05-08 14:44 41.97723 -87.58673 2697 ft 193 kts 127°
2026-05-08 14:44 41.96796 -87.57314 2686 ft 202 kts 145°
2026-05-08 14:44 41.95580 -87.56340 2673 ft 206 kts 152°
2026-05-08 14:44 41.94316 -87.55407 2686 ft 208 kts 152°
2026-05-08 14:45 41.93042 -87.54466 2680 ft 210 kts 152°
2026-05-08 14:45 41.91758 -87.53515 2678 ft 211 kts 152°
2026-05-08 14:45 41.90475 -87.52563 2674 ft 211 kts 152°
2026-05-08 14:45 41.89190 -87.51618 2679 ft 211 kts 152°
2026-05-08 14:46 41.87905 -87.50673 2676 ft 211 kts 152°
2026-05-08 14:46 41.86616 -87.49722 2684 ft 211 kts 152°
2026-05-08 14:46 41.85332 -87.48772 2679 ft 211 kts 151°
2026-05-08 14:46 41.84046 -87.47819 2680 ft 211 kts 152°
2026-05-08 14:47 41.82756 -87.46870 2679 ft 212 kts 152°
2026-05-08 14:47 41.81465 -87.45915 2672 ft 212 kts 152°
2026-05-08 14:47 41.80178 -87.44968 2678 ft 211 kts 152°
2026-05-08 14:47 41.78895 -87.44020 2681 ft 210 kts 152°
2026-05-08 14:48 41.77619 -87.43071 2681 ft 210 kts 152°
2026-05-08 14:48 41.76338 -87.42121 2681 ft 210 kts 152°
2026-05-08 14:48 41.75057 -87.41171 2677 ft 210 kts 153°
2026-05-08 14:48 41.73776 -87.40229 2686 ft 210 kts 151°
2026-05-08 14:49 41.72497 -87.39284 2679 ft 210 kts 152°
2026-05-08 14:49 41.71217 -87.38341 2674 ft 210 kts 152°
2026-05-08 14:49 41.69938 -87.37405 2787 ft 202 kts 153°
2026-05-08 14:49 41.68763 -87.36700 3497 ft 174 kts 165°
2026-05-08 14:50 41.67586 -87.36577 3938 ft 166 kts 180°
2026-05-08 14:50 41.66443 -87.36562 4330 ft 162 kts 181°
2026-05-08 14:50 41.65336 -87.36542 4711 ft 159 kts 180°
2026-05-08 14:50 41.64237 -87.36491 5148 ft 158 kts 181°
2026-05-08 14:51 41.63146 -87.36463 5589 ft 157 kts 182°
2026-05-08 14:51 41.62051 -87.36454 6031 ft 156 kts 183°
2026-05-08 14:51 41.60958 -87.36459 6423 ft 159 kts 183°
2026-05-08 14:51 41.59849 -87.36448 6796 ft 155 kts 185°
2026-05-08 14:52 41.58818 -87.36451 7354 ft 147 kts 186°
2026-05-08 14:52 41.56830 -87.36388 8305 ft 141 kts 187°
2026-05-08 14:52 41.55850 -87.36340 8760 ft 140 kts 187°
2026-05-08 14:53 41.54886 -87.36275 9199 ft 138 kts 190°
2026-05-08 14:53 41.53892 -87.36225 9239 ft 157 kts 191°
2026-05-08 14:53 41.52689 -87.36209 9082 ft 180 kts 188°
2026-05-08 14:53 41.51435 -87.36151 9068 ft 182 kts 187°
2026-05-08 14:54 41.50122 -87.36076 8825 ft 194 kts 186°
2026-05-08 14:54 41.48756 -87.35993 8599 ft 203 kts 185°
2026-05-08 14:54 41.47300 -87.35922 8272 ft 214 kts 186°
2026-05-08 14:54 41.45784 -87.35910 7782 ft 224 kts 185°
2026-05-08 14:55 41.44203 -87.35892 7508 ft 221 kts 186°
2026-05-08 14:55 41.42688 -87.35916 7364 ft 216 kts 186°
2026-05-08 14:55 41.41217 -87.35954 7419 ft 203 kts 187°
2026-05-08 14:55 41.39821 -87.35973 7430 ft 198 kts 185°
2026-05-08 14:56 41.38433 -87.35935 7362 ft 197 kts 185°
2026-05-08 14:56 41.37097 -87.35922 7431 ft 192 kts 186°
2026-05-08 14:56 41.35776 -87.35885 7489 ft 188 kts 181°
2026-05-08 14:56 41.34513 -87.35491 7484 ft 192 kts 168°
2026-05-08 14:57 41.33231 -87.34902 7449 ft 197 kts 167°
2026-05-08 14:57 41.31929 -87.34304 7425 ft 198 kts 167°
2026-05-08 14:57 41.31015 -87.33878 7417 ft 199 kts 167°
2026-05-08 14:58 41.29899 -87.33351 7366 ft 200 kts 167°
2026-05-08 14:58 41.28598 -87.32729 7447 ft 195 kts 168°
2026-05-08 14:58 41.27310 -87.32146 7429 ft 198 kts 168°
2026-05-08 14:59 41.26019 -87.31573 7404 ft 198 kts 169°
2026-05-08 14:59 41.23432 -87.30315 7406 ft 199 kts 165°
2026-05-08 14:59 41.22164 -87.29556 7392 ft 201 kts 160°
2026-05-08 15:00 41.20911 -87.28683 7323 ft 205 kts 159°
2026-05-08 15:00 41.19682 -87.27683 7214 ft 210 kts 154°
2026-05-08 15:00 41.18452 -87.26609 7162 ft 211 kts 154°
2026-05-08 15:00 41.17215 -87.25556 7093 ft 212 kts 155°
2026-05-08 15:01 41.16011 -87.24594 7395 ft 196 kts 157°
2026-05-08 15:01 41.14825 -87.23656 7418 ft 200 kts 158°
2026-05-08 15:01 41.13643 -87.22697 7491 ft 200 kts 156°
2026-05-08 15:01 41.12454 -87.21693 7479 ft 203 kts 156°
2026-05-08 15:02 41.11257 -87.20698 7480 ft 203 kts 157°
2026-05-08 15:02 41.10064 -87.19719 7451 ft 205 kts 156°
2026-05-08 15:02 41.08855 -87.18696 7418 ft 206 kts 156°
2026-05-08 15:02 41.07655 -87.17655 7433 ft 205 kts 153°
2026-05-08 15:03 41.06496 -87.16520 7408 ft 209 kts 154°
2026-05-08 15:03 41.05243 -87.15565 7400 ft 205 kts 163°
2026-05-08 15:03 41.03961 -87.14844 7501 ft 203 kts 166°
2026-05-08 15:03 41.02639 -87.14132 7482 ft 206 kts 167°
2026-05-08 15:04 41.01299 -87.13430 7496 ft 207 kts 167°
2026-05-08 15:04 40.99963 -87.12736 7533 ft 207 kts 167°
2026-05-08 15:04 40.98611 -87.12017 7479 ft 211 kts 166°
2026-05-08 15:04 40.97233 -87.11338 7471 ft 210 kts 169°
2026-05-08 15:05 40.95853 -87.10702 7505 ft 208 kts 169°
2026-05-08 15:05 40.94508 -87.10069 7504 ft 208 kts 168°
2026-05-08 15:05 40.93142 -87.09383 7487 ft 210 kts 168°
2026-05-08 15:05 40.91764 -87.08691 7407 ft 214 kts 168°
2026-05-08 15:06 40.90347 -87.07999 7361 ft 214 kts 168°
2026-05-08 15:06 40.88975 -87.07325 7348 ft 213 kts 168°
2026-05-08 15:06 40.87589 -87.06617 7277 ft 215 kts 163°
2026-05-08 15:06 40.86289 -87.05551 7097 ft 225 kts 152°
2026-05-08 15:07 40.85023 -87.04352 7159 ft 222 kts 153°
2026-05-08 15:07 40.83718 -87.03172 6905 ft 231 kts 154°
2026-05-08 15:07 40.82343 -87.02027 6676 ft 235 kts 156°
2026-05-08 15:07 40.80939 -87.00876 6366 ft 240 kts 154°
2026-05-08 15:08 40.79509 -86.99714 6168 ft 239 kts 159°
2026-05-08 15:08 40.78530 -86.99076 6097 ft 235 kts 162°
2026-05-08 15:08 40.76530 -86.97945 5828 ft 234 kts 166°
2026-05-08 15:08 40.74992 -86.97191 5543 ft 236 kts 166°
2026-05-08 15:09 40.73629 -86.96245 5679 ft 225 kts 151°
2026-05-08 15:09 40.72495 -86.94836 5721 ft 224 kts 137°
2026-05-08 15:09 40.71290 -86.93723 6118 ft 208 kts 166°
2026-05-08 15:09 40.69867 -86.93195 5843 ft 217 kts 173°
2026-05-08 15:10 40.68387 -86.92653 5594 ft 224 kts 167°
2026-05-08 15:10 40.66906 -86.91957 5470 ft 226 kts 167°
2026-05-08 15:10 40.65440 -86.91181 5259 ft 230 kts 161°
2026-05-08 15:10 40.64002 -86.90165 5012 ft 236 kts 158°
2026-05-08 15:11 40.62602 -86.89168 5181 ft 223 kts 158°
2026-05-08 15:11 40.61247 -86.88176 5175 ft 225 kts 158°
2026-05-08 15:11 40.59891 -86.87195 5288 ft 221 kts 158°
2026-05-08 15:11 40.58552 -86.86222 5282 ft 223 kts 159°
2026-05-08 15:12 40.57182 -86.85293 5373 ft 219 kts 161°
2026-05-08 15:12 40.55817 -86.84404 5458 ft 218 kts 161°
2026-05-08 15:12 40.54451 -86.83526 5456 ft 219 kts 162°
2026-05-08 15:12 40.53079 -86.82629 5459 ft 220 kts 160°
2026-05-08 15:13 40.51713 -86.81702 5459 ft 222 kts 160°
2026-05-08 15:13 40.50326 -86.80811 5464 ft 222 kts 162°
2026-05-08 15:13 40.48921 -86.79941 5409 ft 224 kts 162°
2026-05-08 15:13 40.47483 -86.79145 5393 ft 224 kts 166°
2026-05-08 15:14 40.46053 -86.78434 5434 ft 221 kts 166°
2026-05-08 15:14 40.44622 -86.77667 5443 ft 221 kts 165°
2026-05-08 15:14 40.43207 -86.76882 5461 ft 220 kts 164°
2026-05-08 15:14 40.41805 -86.76077 5484 ft 220 kts 162°
2026-05-08 15:15 40.40425 -86.75180 5476 ft 222 kts 159°
2026-05-08 15:15 40.39053 -86.74232 5457 ft 224 kts 159°
2026-05-08 15:15 40.37691 -86.73277 5439 ft 225 kts 158°
2026-05-08 15:15 40.36346 -86.72227 5413 ft 225 kts 154°
2026-05-08 15:16 40.35011 -86.71157 5428 ft 224 kts 156°
2026-05-08 15:16 40.33678 -86.70113 5482 ft 222 kts 157°
2026-05-08 15:16 40.32328 -86.69140 5515 ft 222 kts 159°
2026-05-08 15:16 40.30940 -86.68225 5489 ft 223 kts 162°
2026-05-08 15:17 40.29531 -86.67380 5495 ft 222 kts 163°
2026-05-08 15:17 40.28137 -86.66599 5502 ft 220 kts 165°
2026-05-08 15:17 40.26715 -86.65850 5497 ft 220 kts 166°
2026-05-08 15:17 40.25404 -86.64810 5317 ft 229 kts 140°
2026-05-08 15:18 40.24590 -86.63004 5373 ft 233 kts 113°
2026-05-08 15:18 40.24410 -86.61614 5413 ft 236 kts 94°
2026-05-08 15:18 40.25023 -86.58902 5386 ft 234 kts 58°
2026-05-08 15:18 40.26006 -86.57301 5716 ft 219 kts 41°
2026-05-08 15:19 40.27239 -86.56133 5748 ft 220 kts 23°
2026-05-08 15:19 40.28689 -86.55574 5703 ft 220 kts 356°
2026-05-08 15:19 40.29690 -86.55767 5588 ft 218 kts 333°
2026-05-08 15:19 40.30824 -86.56947 5511 ft 206 kts 297°
2026-05-08 15:20 40.31202 -86.58660 5544 ft 192 kts 264°
2026-05-08 15:20 40.30748 -86.60236 5544 ft 187 kts 231°
2026-05-08 15:20 40.29655 -86.61115 5542 ft 189 kts 199°
2026-05-08 15:21 40.25942 -86.58230 5146 ft 228 kts 114°
2026-05-08 15:21 40.25819 -86.56152 5172 ft 228 kts 81°
2026-05-08 15:21 40.26445 -86.54249 5163 ft 232 kts 53°
2026-05-08 15:22 40.27694 -86.53005 5227 ft 223 kts 13°
2026-05-08 15:22 40.29158 -86.53153 5261 ft 209 kts 323°
2026-05-08 15:22 40.29919 -86.54558 5322 ft 189 kts 274°
2026-05-08 15:22 40.29354 -86.55967 5247 ft 189 kts 220°
2026-05-08 15:23 40.28317 -86.56953 5391 ft 180 kts 218°
2026-05-08 15:23 40.27272 -86.57846 5460 ft 179 kts 217°
2026-05-08 15:23 40.26221 -86.58697 5549 ft 177 kts 216°
2026-05-08 15:23 40.25161 -86.59520 5602 ft 178 kts 216°
2026-05-08 15:24 40.24096 -86.60360 5628 ft 180 kts 216°
2026-05-08 15:24 40.23013 -86.61198 5643 ft 181 kts 215°